www.pogodaiklimat.ru

Погода и климат >> Архив погоды >> Бельгия >> Шарлеруа


ПОГОДА в Шарлеруа

  • Прогноз погоды в Шарлеруа
  • Монитор погоды в Шарлеруа

АРХИВ ПОГОДЫ в Шарлеруа

Время (UTC), дата Ветер
(напр.,м/с)
 
Видим.   Явления Облачность Т
(С)
Тd
(С)
f
(%)
Тe
(С)
Тes
(С)
Комфортность P
(гПа)
Po
(гПа)
Тmin
(С)
Tmax
(С)
R
(мм)
R24
(мм)
S
(см)
10 12.01 ЮЗ 6
{8}
12 км 9/9 720 м
[Sc]
+5.6 +3.1 84 +1 +1 1023.9 1000.7
11 12.01 ЮЗ 8
{11}
20 км 9/9 450 м
[Sc]
+6.0 +3.3 83 +1 +1 1022.7 999.5
12 12.01 ЮЗ 7
{11}
3500 м слаб. дождь 9/9 330 м
[Sc]
+5.8 +4.3 90 0 +1 1022.0 998.9
13 12.01 ЮЗ 7
{10}
2600 м дождь {морось} 9/9 90 м
[Frnb]
+5.5 +4.7 95 0 0 1020.8 997.6
14 12.01 З 7
{10}
2600 м дождь {морось} 9/9 90 м
[Frnb]
+6.1 +5.4 95 +1 +1 1019.6 996.6
15 12.01 З 5
{10}
6000 м в посл. час дождь {морось} 9/9 90 м
[St]
+6.7 +6.0 95 +2 +2 1019.0 996.0
16 12.01 З 5
{9}
7000 м слаб. дождь {морось} 9/9 180 м
[Frnb]
+7.0 +6.1 94 +3 +3 1018.8 995.8
17 12.01 З 4
{9}
8000 м слаб. дождь 9/9 180 м
[Frnb]
+7.0 +6.1 94 +3 +3 1018.5 995.5
18 12.01 З 4
{10}
8000 м слаб. дождь 9/9 180 м
[Frnb]
+7.0 +6.0 93 +3 +3 1018.5 995.5 +7.1 3
19 12.01 З 4
{9}
14 км в посл. час дождь 9/9 210 м
[St]
+7.1 +6.0 93 +3 +3 1018.2 995.2
20 12.01 З 5
{9}
14 км 9/9 210 м
[St]
+7.1 +5.7 91 +3 +3 1017.9 995.0
21 12.01 З 4
{9}
14 км {дождь} 9/9 210 м
[St]
+6.8 +5.6 92 +3 +3 1017.6 994.6
22 12.01 З 3
{7}
7000 м 9/9 150 м
[St]
+6.6 +5.6 93 +3 +3 1017.2 994.3
23 12.01 З 4
{8}
12 км в посл. час дождь 10/9 180 м
[St]
+6.9 +5.4 90 +3 +3 1017.2 994.2
00 13.01 З 4
{9}
3500 м слаб. дождь 10/9 90 м
[Frnb]
+6.3 +5.5 95 +2 +2 1016.7 993.8 0.2
01 13.01 З 5
{8}
3800 м слаб. дождь 10/9 90 м
[Frnb]
+6.2 +5.6 96 +2 +2 1016.4 993.5
02 13.01 З 5
{8}
3000 м слаб. дождь 10/9 60 м
[Frnb]
+6.4 +5.8 96 +2 +2 1015.9 992.9
03 13.01 З 5
{8}
2500 м слаб. дождь 10/9 30 м
[Frnb]
+6.6 +6.0 96 +2 +2 1015.2 992.3
04 13.01 З 4
{8}
2500 м слаб. дождь 10/9 60 м
[Frnb]
+7.0 +6.4 96 +3 +3 1014.8 991.9
05 13.01 З 4
{8}
2000 м слаб. дождь 10/9 60 м
[Frnb]
+7.1 +6.6 97 +3 +3 1014.1 991.3
06 13.01 З 5
{9}
2200 м слаб. дождь 10/9 60 м
[Frnb]
+7.2 +6.6 96 +3 +3 1013.5 990.6 +6.2 3
07 13.01 З 7
{10}
12 км в посл. час дождь 9/9 240 м
[Sc]
+7.4 +6.4 93 +3 +3 1013.1 990.3
08 13.01 З 5
{11}
15 км 9/9 270 м
[St]
+7.6 +6.5 93 +4 +4 1013.5 990.7
09 13.01 З 5
{11}
15 км {дождь} 9/9 210 м
[St]
+7.7 +6.5 92 +4 +4 1013.0 990.3
10 13.01 З 6
{9}
15 км 9/9 240 м
[St]
+8.1 +6.8 91 +4 +4 1012.6 989.8
11 13.01 З 6
{9}
15 км 9/9 240 м
[St]
+8.5 +6.9 90 +4 +5 1011.8 989.1
12 13.01 З 6
{11}
10 км слаб. дождь 9/9 270 м
[St]
+8.8 +7.1 89 +5 +5 1010.6 987.9
13 13.01 З 6
{11}
10 км слаб. дождь 9/9 270 м
[St]
+8.8 +7.6 92 +5 +5 1009.8 987.1
14 13.01 З 5
{12}
2800 м слаб. дождь 9/9 90 м
[St]
+8.5 +7.8 95 +5 +5 1009.1 986.5
15 13.01 З 5
{12}
3000 м в посл. час дождь 9/9 150 м
[St]
+8.7 +7.7 93 +5 +5 1008.5 985.9
16 13.01 З 6
{11}
15 км в посл. час дождь 9/9 270 м
[St]
+8.4 +7.1 92 +4 +4 1008.6 986.0
17 13.01 З 6
{13}
15 км 9/9 330 м
[Sc]
+8.5 +6.7 88 +4 +4 1008.8 986.2
18 13.01 З 6
{13}
15 км {дождь} 9/9 300 м
[St]
+8.4 +6.8 90 +4 +4 1008.4 985.8 +9.0 2
19 13.01 З 7
{12}
15 км 9/8 300 м
[St]
+8.4 +6.9 90 +4 +4 1008.0 985.4
20 13.01 З 7
{14}
8000 м слаб. дождь 10/9 240 м
[Frnb]
+8.4 +7.0 91 +4 +4 1007.8 985.2
21 13.01 З 6
{15}
15 км в посл. час дождь 10/9 240 м
[Sc]
+7.7 +4.7 81 +4 +4 1008.2 985.5
22 13.01 СЗ 5
{12}
15 км слаб. дождь 10/9 240 м
[Sc]
+7.5 +5.0 84 +4 +4 1008.7 986.0
23 13.01 СЗ 5
{14}
10 км слаб. дождь 10/9 240 м
[Sc]
+6.7 +4.3 85 +3 +3 1009.5 986.7
00 14.01 СЗ 5
{15}
20 км в посл. час дождь 9/9 300 м
[Sc]
+6.9 +4.4 84 +3 +3 1010.1 987.3 2
01 14.01 СЗ 4
{11}
20 км 9/9 300 м
[Sc]
+6.5 +3.5 81 +3 +3 1010.7 987.9
02 14.01 З 5
{9}
10 км слаб. дождь 10/9 300 м
[Sc]
+6.3 +3.6 83 +2 +2 1011.4 988.5
03 14.01 СЗ 5
{11}
10 км 9/9 300 м
[Sc]
+6.1 +3.7 85 +2 +2 1012.1 989.2
04 14.01 З 4
{8}
10 км слаб. дождь 10/9 300 м
[Sc]
+6.0 +3.7 85 +2 +2 1012.8 989.8
05 14.01 З 4
{8}
15 км в посл. час дождь 9/9 240 м
[Cu Sc]
+6.0 +3.6 85 +2 +2 1013.1 990.2
06 14.01 З 4
{11}
15 км {дождь} 9/9 240 м
[Cu Sc]
+5.7 +3.7 87 +2 +2 1013.8 990.8 +5.7 2
07 14.01 З 4
{8}
15 км 9/9 450 м
[Cu Sc]
+5.4 +3.1 85 +1 +1 1014.4 991.4
08 14.01 З 4
{8}
15 км 9/6 360 м
[Cu Sc Ci fib]
+5.4 +3.2 86 +1 +1 1015.2 992.2
09 14.01 З 4
{9}
20 км 6/5 360 м
[Cu Sc Ci fib]
+5.2 +3.2 87 +1 +1 1016.2 993.1
10 14.01 З 5
{8}
20 км 8/8 360 м
[Cu Sc]
+5.5 +3.3 86 +1 +1 1016.6 993.6
11 14.01 СЗ 4
{9}
4000 м дождь {морось} 9/9 240 м
[Sc]
+5.0 +3.4 89 +1 +1 1017.2 994.1
12 14.01 СЗ 4
{9}
8000 м в посл. час дождь {морось} 8/8 240 м
[Cu Sc]
+5.2 +3.7 90 +1 +1 1017.8 994.7 1
13 14.01 СЗ 6
{12}
5000 м слаб. ливневой дождь 8/8 240 м
[Cu Sc]
+4.3 +1.9 84 -1 -1 1018.8 995.6
14 14.01 СЗ 4
{12}
15 км в посл. час ливневой дождь 8/6 300 м
[Sc Ci fib]
+5.2 +3.6 89 +1 +1 1019.0 995.8
15 14.01 СЗ 3
{12}
20 км {ливн. осадки} 6/6 450 м
[Sc Ci fib]
+5.0 +2.7 85 +2 +2 1019.8 996.7
16 14.01 СЗ 2
{6}
20 км 6/6 450 м
[Sc Ci fib]
+4.9 +1.7 80 +2 +2 1020.7 997.5
17 14.01 СЗ 2
{5}
20 км 6/6 450 м
[Cu Sc Ci fib]
+4.3 +0.7 77 +2 +2 1021.3 998.0
18 14.01 З 2
{12}
20 км {ливн. осадки} 4/4 1500 м
[Sc]
+3.4 +1.0 84 0 0 1021.8 998.4 +5.9 2
19 14.01 З 2
{4}
25 км 8/8 1350 м
[Cu Sc]
+3.3 +1.3 87 0 0 1022.4 999.0
20 14.01 З 2
{4}
25 км 9/9 800 м
[Sc]
+3.2 +1.7 90 0 0 1022.7 999.3
21 14.01 З 1
{4}
25 км 9/9 800 м
[Sc]
+3.1 +1.7 91 +1 +1 1022.9 999.4
22 14.01 З 2
{4}
25 км 9/9 600 м
[Cu Sc]
+3.0 +1.5 90 -0 -0 1023.0 999.6
23 14.01 З 2
{4}
25 км 9/9 360 м
[Cu Sc]
+3.5 +2.0 90 +1 +1 1023.1 999.8
00 15.01 ЮЗ 3
{4}
12 км 6/6 1350 м
[Sc]
+3.2 +2.0 92 -1 -1 1023.2 999.8
01 15.01 ЮЗ 4
{5}
8000 м 5/5 720 м
[Sc]
+2.9 +2.0 94 -2 -2 1023.2 999.8
02 15.01 ЮЗ 3
{4}
7000 м 1/1 720 м
[Sc]
+2.6 +1.8 94 -2 -2 1023.3 999.8
03 15.01 ЮЗ 3
{5}
5000 м 8/8 1470 м
[Sc]
+2.7 +2.0 95 -2 -2 1023.5 1000.0
04 15.01 ЮЗ 3
{5}
7000 м 9/9 700 м
[Sc]
+3.0 +2.1 94 -1 -1 1023.0 999.6
05 15.01 ЮЗ 4
{6}
9000 м 9/9 700 м
[Cu Sc]
+3.6 +2.4 92 -1 -1 1022.5 999.2
06 15.01 ЮЗ 4
{6}
9000 м 9/9 750 м
[Sc]
+4.0 +2.7 91 -1 -1 1022.2 998.9 +2.4
07 15.01 ЮЗ 4
{6}
10 км 9/9 1050 м
[Sc]
+4.1 +2.8 91 -0 -0 1022.2 998.9
08 15.01 ЮЗ 4
{7}
14 км 9/9 1050 м
[Sc]
+4.4 +2.9 90 0 0 1022.2 999.0
09 15.01 ЮЗ 5
{7}
14 км 8/3 1050 м
[Sc Ci fib]
+4.3 +2.6 89 -1 -1 1022.3 999.0
10 15.01 ЮЗ 4
{7}
20 км 8/3 960 м
[Sc Ci fib]
+5.2 +3.1 86 +1 +2 1022.4 999.2
11 15.01 З 6
{9}
20 км 8/6 900 м
[Sc Ci fib]
+6.0 +3.1 82 +1 +2 1021.9 998.8
12 15.01 ЮЗ 7
{10}
20 км 9/9 600 м
[Cu Sc]
+6.2 +2.8 79 +1 +1 1021.3 998.2
13 15.01 З 6
{11}
20 км 9/9 600 м
[Cu Sc]
+6.3 +2.7 78 +2 +2 1021.0 997.9
14 15.01 З 6
{10}
20 км 9/9 450 м
[Sc]
+6.0 +3.0 81 +1 +1 1020.7 997.6
15 15.01 ЮЗ 6
{11}
11 км слаб. морось 9/9 300 м
[Sc]
+5.6 +3.7 88 +1 +1 1020.6 997.5
16 15.01 ЮЗ 6
{9}
9000 м слаб. морось 9/9 180 м
[Sc]
+5.3 +3.9 91 0 0 1020.6 997.5
17 15.01 ЮЗ 5
{12}
9000 м слаб. морось 9/9 180 м
[Frnb]
+5.2 +4.2 93 0 0 1020.5 997.3
18 15.01 ЮЗ 5
{12}
9000 м 9/9 180 м
[St]
+5.2 +4.4 95 0 0 1020.1 997.0 +6.4
19 15.01 ЮЗ 6
{8}
6000 м слаб. морось 9/9 90 м
[Frnb]
+5.2 +4.4 95 -0 -0 1020.0 996.8
20 15.01 ЮЗ 6
{9}
3200 м слаб. морось 10/9 90 м
[Frnb]
+4.9 +4.1 95 -1 -1 1019.7 996.6
21 15.01 ЮЗ 6
{9}
3200 м слаб. морось 10/9 90 м
[Frnb]
+4.9 +3.8 93 -0 -0 1019.2 996.0
22 15.01 ЮЗ 5
{8}
6000 м 10/10 210 м
[St]
+5.1 +3.5 89 0 0 1018.8 995.6
23 15.01 ЮЗ 5
{7}
15 км 9/9 750 м
[Sc]
+5.2 +3.0 86 +1 +1 1018.2 995.1
00 16.01 ЮЗ 6
{9}
15 км {морось} 9/9 1200 м
[Sc]
+5.4 +2.9 84 0 0 1017.7 994.6 0.2
01 16.01 ЮЗ 7
{10}
15 км 9/9 1200 м
[Sc]
+5.4 +2.6 82 0 0 1017.1 994.0
02 16.01 ЮЗ 5
{9}
15 км 9/9 1200 м
[Sc]
+5.3 +2.5 82 +1 +1 1016.9 993.8
03 16.01 ЮЗ 5
{10}
15 км 9/9 1200 м
[Sc]
+5.2 +2.2 81 +1 +1 1016.3 993.2
04 16.01 ЮЗ 5
{8}
15 км 9/9 1200 м
[Sc]
+5.1 +2.2 82 +1 +1 1015.5 992.5
05 16.01 ЮЗ 5
{8}
15 км 9/9 600 м
[Sc]
+5.0 +1.7 79 0 0 1014.9 991.8
06 16.01 ЮЗ 6
{10}
25 км 9/9 420 м
[Sc]
+4.7 +1.9 82 -1 -1 1014.4 991.4 +4.7 0.2
07 16.01 Ю 5
{8}
25 км 9/9 360 м
[Sc]
+4.3 +2.0 85 -1 -1 1014.1 991.0
08 16.01 ЮЗ 6
{10}
25 км 9/9 450 м
[Sc]
+4.3 +1.2 80 -1 -1 1013.5 990.4
09 16.01 ЮЗ 6
{10}
25 км 9/9 540 м
[Sc]
+4.1 +0.7 78 -1 -1 1013.4 990.3
10 16.01 ЮЗ 6
{10}
25 км 9/9 570 м
[Sc]
+4.3 +0.8 78 -1 -1 1012.9 989.8
11 16.01 ЮЗ 6
{11}
25 км 9/9 570 м
[Sc]
+4.7 +0.7 75 -0 -0 1011.9 988.9
12 16.01 ЮЗ 7
{12}
25 км 9/9 630 м
[Sc]
+5.1 +0.2 71 -0 0 1010.8 987.8
13 16.01 ЮЗ 8
{12}
25 км 9/4 700 м
[Sc Ci sp]
+5.4 +0.2 69 0 0 1009.4 986.5
14 16.01 ЮЗ 7
{12}
25 км 9/4 700 м
[Sc Ci sp]
+5.3 +0.6 72 0 0 1008.4 985.5
15 16.01 ЮЗ 7
{12}
25 км 9/3 700 м
[Sc Ac trans Ci sp]
+5.3 +0.7 72 0 0 1007.5 984.6
16 16.01 ЮЗ 6
{12}
25 км 9/4 630 м
[Sc Ac trans Ci sp]
+5.0 +0.8 74 0 0 1007.3 984.4
17 16.01 ЮЗ 8
{12}
25 км 9/6 570 м
[Sc Ac trans Ci sp]
+4.9 +0.9 75 -1 -1 1007.2 984.3
18 16.01 Ю 7
{12}
25 км 9/6 570 м
[Sc Ac trans Ci sp]
+4.7 +1.1 77 -1 -1 1006.4 983.5 +5.5
19 16.01 Ю 7
{12}
15 км 9/9 700 м
[Sc]
+4.6 +1.3 79 -1 -1 1006.0 983.1
20 16.01 ЮЗ 8
{12}
15 км 9/9 540 м
[Sc]
+4.9 +1.5 79 -1 -1 1005.4 982.5
21 16.01 ЮЗ 8
{13}
15 км 9/9 420 м
[Sc]
+4.9 +1.6 79 -1 -1 1005.1 982.3
22 16.01 ЮЗ 8
{13}
9000 м слаб. морось 10/9 180 м
[Frnb]
+4.2 +2.8 91 -2 -2 1004.8 981.9
23 16.01 ЮЗ 8
{12}
4500 м дождь {морось} 9/9 180 м
[Frnb]
+4.3 +3.4 94 -2 -2 1004.8 981.9
00 17.01 ЮЗ 8
{13}
8000 м дождь {морось} 10/9 180 м
[Frnb]
+4.7 +3.8 94 -1 -1 1004.5 981.7 0.7
01 17.01 ЮЗ 7
{12}
8000 м дождь {морось} 10/9 180 м
[Frnb]
+4.9 +4.0 94 -1 -1 1004.8 982.0
02 17.01 ЮЗ 5
{11}
15 км в посл. час дождь 9/9 210 м
[Sc]
+5.0 +3.9 93 0 0 1004.9 982.0
03 17.01 ЮЗ 5
{12}
15 км 9/9 400 м
[Sc]
+4.9 +3.8 93 0 0 1004.7 981.9
04 17.01 ЮЗ 5
{7}
25 км 9/9 360 м
[St]
+4.5 +3.2 91 -0 -0 1004.6 981.8
05 17.01 ЮЗ 4
{7}
20 км 9/9 240 м
[Sc]
+4.6 +3.6 93 0 0 1004.4 981.5
06 17.01 ЮЗ 4
{12}
25 км в посл. час ливневой дождь 9/9 300 м
[Cu Sc]
+3.4 +2.3 92 -1 -1 1004.2 981.3 +3.2 3
07 17.01 ЮЗ 6
{9}
15 км в посл. час ливневой дождь 9/9 240 м
[St]
+4.7 +3.4 91 -1 -1 1003.5 980.7
08 17.01 ЮЗ 7
{10}
8000 м слаб. дождь 9/9 240 м
[Frnb]
+4.7 +3.5 92 -1 -1 1003.6 980.7
09 17.01 ЮЗ 9
{14}
10 км слаб. дождь 9/9 240 м
[Frnb]
+4.0 +2.8 92 -3 -3 1004.4 981.5
10 17.01 ЮЗ 7
{14}
10 км слаб. дождь 9/9 240 м
[Frnb]
+3.5 +2.4 92 -3 -3 1005.0 982.1
11 17.01 З 5
{11}
10 км слаб. дождь 9/9 180 м
[Frnb]
+3.4 +2.4 93 -2 -2 1005.9 982.9
12 17.01 З 5
{14}
15 км в посл. час дождь 9/9 300 м
[Sc]
+4.1 +2.1 87 -1 -1 1006.4 983.4 4
13 17.01 СЗ 4
{12}
8000 м в посл. час ливневой дождь 9/9 300 м
[Sc]
+2.7 +1.5 92 -2 -2 1007.6 984.5
14 17.01 СЗ 4
{10}
10 км в посл. час ливневой дождь 9/9 300 м
[Cu Sc]
+1.8 +0.7 92 -3 -3 1008.7 985.5
15 17.01 З 4
{12}
15 км в посл. час ливневой дождь 5/5 300 м
[Cu Sc Ci fib]
+2.6 +0.1 84 -2 -2 1009.7 986.5
16 17.01 З 5
{9}
15 км 6/6 600 м
[Cu Sc]
+2.4 -1.3 77 -3 -3 1010.8 987.6
17 17.01 З 5
{9}
15 км 8/8 600 м
[Cu Sc]
+2.1 -1.5 77 -3 -3 1011.6 988.4
18 17.01 З 5
{12}
1800 м в посл. час ливневой снег 10/9 120 м
[Frnb]
+1.4 -0.9 85 -4 -4 1012.6 989.3 +4.7 4
19 17.01 З 4
{10}
15 км в посл. час ливневой снег 10/9 180 м
[St]
+0.9 -0.1 93 -5 -5 1013.9 990.5
20 17.01 З 5
{10}
3200 м слаб. ливневой снег 9/9 120 м
[Frnb]
+0.3 -0.3 96 -6 -6 1015.0 991.6
21 17.01 З 2
{10}
8000 м в посл. час ливневой снег 9/9 90 м
[St]
0.0 -0.3 98 -4 -4 1015.9 992.4
22 17.01 З 3
{8}
10 км слаб. ливневой снег 9/9 180 м
[Frnb]
+0.6 -0.1 95 -4 -4 1016.4 993.0
23 17.01 З 3
{6}
10 км слаб. ливневой снег 9/9 240 м
[Sc]
+0.7 +0.1 96 -4 -4 1017.0 993.6
00 18.01 З 3
{10}
15 км в посл. час ливневой снег 9/9 120 м
[St]
+0.6 -0.1 95 -4 -4 1017.5 994.0 2
01 18.01 З 3
{5}
500 м туман 10/9 30 м
[Frnb]
0.0 -0.2 99 -5 -5 1017.8 994.2
02 18.01 З 3
{5}
3000 м дымка {туман} 9/9 60 м
[Sc]
0.0 -0.5 96 -5 -5 1018.6 995.1
03 18.01 З 4
{7}
6000 м {туман} 9/9 300 м
[Sc]
+0.3 -0.6 94 -5 -5 1018.8 995.2
04 18.01 З 2
{6}
6000 м 4/1 300 м
[St Ci fib]
-0.4 -1.0 96 -4 -4 1019.0 995.4
05 18.01 З 2
{4}
5000 м дымка 4/0
[Ci fib]
-0.7 -1.3 96 -5 -5 1019.3 995.7
06 18.01 З 2
{7}
3500 м дымка {туман} 4/0
[Ci fib]
-0.5 -1.2 95 -4 -4 1019.6 996.0 -0.9 2
07 18.01 ЮЗ 2
{3}
3000 м дымка 4/1 150 м
[St Ci sp]
-0.8 -1.0 99 -5 -5 1020.0 996.3
08 18.01 ЮЗ 2
{4}
3500 м дымка 6/1 150 м
[St Ci sp]
-0.6 -1.0 97 -5 -4 1020.6 996.9
09 18.01 Ю 2
{4}
2800 м дымка 6/1 90 м
[St Ci sp]
-0.5 -1.0 96 -4 -4 1021.1 997.4
10 18.01 Ю 2
{3}
3200 м дымка 9/4 90 м
[St Ci sp]
+0.5 -0.3 94 -3 -2 1021.4 997.8
11 18.01 Ю 3
{5}
3000 м дымка 9/9 90 м
[St Ci sp]
+0.5 -0.2 95 -4 -4 1021.4 997.8
12 18.01 Ю 4
{6}
4500 м дымка 10/9 120 м
[St]
+0.9 0.0 94 -5 -4 1021.2 997.6
13 18.01 Ю 3
{7}
7000 м 6/4 150 м
[St Ci sp]
+1.0 -0.3 91 -4 -3 1020.7 997.2
14 18.01 Ю 3
{5}
15 км 5/1 180 м
[St Ci sp]
+2.2 -0.2 84 -2 -1 1020.2 996.7
15 18.01 Ю 2
{7}
15 км 5/1 400 м
[Cu hum Ci sp]
+2.0 -0.7 82 -1 -1 1020.0 996.6
16 18.01 ЮЗ 3
{4}
15 км 6/1 400 м
[Cu hum Ci sp]
+0.8 -0.7 90 -4 -4 1020.2 996.6
17 18.01 ЮВ 1
{3}
10 км 6/0
[Ci sp]
+0.2 -0.8 93 -2 -2 1020.0 996.4
18 18.01 Ю 1
{7}
8000 м 6/0
[Ci sp]
-0.1 -0.7 96 -2 -2 1019.8 996.2 +2.5
19 18.01 Ю 1
{2}
8000 м 6/0
[Ci fib]
-0.4 -1.0 96 -3 -3 1019.8 996.1
20 18.01 2
{4}
8000 м 6/0
[Ci fib]
-0.8 -1.3 96 -5 -5 1019.6 995.9
21 18.01 ЮВ 2
{4}
8000 м 6/0
[Ci fib]
-1.2 -1.9 95 -5 -5 1019.5 995.8
22 18.01 В 1
{4}
12 км 9/0
[Ci fib]
-1.3 -2.6 91 -4 -4 1019.4 995.7
23 18.01 ЮВ 2
{3}
12 км 9/0
[Ci fib]
-1.4 -3.0 89 -5 -5 1019.2 995.5
00 19.01 ЮВ 1
{4}
12 км 9/0
[Ci fib]
-1.3 -2.8 90 -4 -4 1018.8 995.1
01 19.01 ЮВ 1
{2}
12 км 9/0
[Ci fib]
-1.6 -3.1 89 -4 -4 1018.4 994.7
02 19.01 ЮВ 3
{4}
12 км 9/0
[Ci fib]
-1.7 -3.6 87 -7 -7 1018.0 994.3
03 19.01 ЮВ 3
{4}
12 км 9/0
[Ci fib]
-1.8 -4.0 85 -7 -7 1017.6 993.9
04 19.01 ЮВ 3
{5}
12 км 3/0
[Ci fib]
-2.0 -4.0 86 -7 -7 1017.1 993.4
05 19.01 ЮВ 4
{6}
12 км 3/0
[Ci fib]
-2.2 -4.1 87 -8 -8 1016.7 993.0
06 19.01 ЮВ 3
{6}
12 км 3/0
[Ci fib]
-2.2 -4.2 86 -7 -7 1016.4 992.6 -2.4
07 19.01 ЮВ 3
{5}
15 км 1/0
[Ci fib]
-2.4 -4.4 86 -8 -8 1016.1 992.4
08 19.01 ЮВ 3
{4}
15 км 1/0
[Ci fib]
-2.4 -4.3 87 -8 -7 1016.2 992.4
09 19.01 ЮВ 3
{5}
15 км 4/0
[Ci fib]
-1.4 -3.7 84 -6 -6 1016.0 992.4

 

Местоположение метеостанции Шарлеруа (Бельгия): широта 50.47 долгота 4.45 высота над уровнем моря 192 м.

В архиве по умолчанию представлена погода в Шарлеруа за последнюю неделю. Архивные данные за месяц целиком и за предыдущие месяцы, начиная с января 2011 года, Вы можете получить, выбрав интересующий диапазон дат из раскрывающегося списка и нажав кнопку "Ввод!".


*Определитесь, кто Вы:
робот инопланетянин человек

Внимание! Время в таблицах - всемирное. Для получения местного времени необходимо прибавить поправку, которая равна 1 ч.

Смотрите также архив погоды в соседних городах и на ближайших метеорологических станциях:

Погода в Эрнаже (Бельгия) (28 км)
Погода во Флорене (Бельгия) (30 км)
Погода в Уккеле (Бельгия) (37 км)
Погода в Бовешене (Бельгия) (38 км)
Погода в Дурбе (Бельгия) (43 км)
Погода в Шьевре (Бельгия) (45 км)
Погода в Брюсселе (Бельгия) (48 км)
Погода в Гумане (Бельгия) (64 км)
Погода в Мелле (Бельгия) (72 км)
Погода в Шаффене (Бельгия) (73 км)

Пояснения к столбцам:

Ветер - указаны скорость ветра в м/с - средняя за 10 мин, порывы в срок и между сроками (в фигурных скобках) и направление, откуда дует ветер: С - северный, СВ - северо-восточный, В - восточный, ЮВ - юго-восточный, Ю - южный, ЮЗ - юго-западный, З - западный, СЗ - северо-западный.
Видимость - горизонтальная дальность видимости в метрах или километрах. При видимости от 1 до 10 км при отсутствии осадков обычно наблюдается дымка, при ухудшении видимости до 1 км и менее - туман. В сухую погоду видимость может ухудшаться дымом, пылью или мглою.
Явления - указаны атмосферные явления, наблюдавшиеся в срок или в последний час перед сроком; фигурными скобками обозначены явления, наблюдавшиеся между сроками (за 1-3 часа до срока); квадратными скобками обозначены град или гололедные отложения с указанием их диаметра в мм.
Облачность - указаны через наклонную черту общая и нижняя облачность в баллах и высота нижней границы облаков в метрах; квадратными скобками обозначены формы облаков: Ci - перистые, Cs - перисто-слоистые, Cc - перисто-кучевые, Ac - высококучевые, As - высокослоистые, Sc - слоисто-кучевые, Ns - слоисто-дождевые, Cu - кучевые, Cb - кучево-дождевые. Подробнее классификацию облаков см. в Атласе облаков (PDF).
T - Температура воздуха - температура, измеренная на высоте 2 м над землей.
Td - Температура точки росы - температура, при понижении до которой содержащийся в воздухе водяной пар достигнет насыщения.
f - Относительная влажность воздуха - влажноcть воздуха, измеренная на высоте 2 м над землей.
Te - Эффективная температура - температура, которую ощущает одетый по сезону человек в тени. Характеристика душности погоды. При расчете учитывается влияние влажности воздуха и скорости ветра на теплоощущения человека.
Tes - Эффективная температура на солнце - температура, которую ощущает человек, с поправкой на солнечный нагрев. Характеристика знойности погоды. Зависит от высоты солнца над горизонтом, облачности и скорости ветра. Ночью, в пасмурную погоду, а также при ветре 12 м/с и более поправка равна нулю.
P - Атмосферное давление - приведенное к уровню моря атмосферное давление.
Po - Атмосферное давление - измеренное на уровне метеостанции атмосферное давление.
Tmin - Минимальная температура - минимум температуры воздуха на высоте 2 м над землей.
Tmax - Максимальная температура - максимум температуры воздуха на высоте 2 м над землей.
R - Количество осадков - Количество выпавших осадков за период времени, мм. При наведении курсора мыши на число - период времени, за который выпало указанное количество осадков.
R24 - Количество осадков - Количество выпавших осадков за 24 часа, мм.
S - Снежный покров - Высота снежного покрова, см. При наведении курсора мыши на число - состояние снежного покрова и степень покрытия местности в баллах.